Probability
0 0 0 0 0 0 0 0 0 0 0 0 0 0 0 0 0 0 0 0 0 0 0 0 0 0 0 0 0 0 0 0 0 0 0 0 0 0 0 0 0 0 0 0
0 0 0 0 0 0 0 0 0 0 0 0 0 0 0 0 0 0 0 0 0 0 0 0 0 0 0 0 0 0 0 0 0 0 0 0 0 0 0 0 0 0 0 0
0 0 0 0 0 0 0 0 0 0 0 0 0 0 0 0 0 0 0 0 0 0 0 0 0 0 0 0 0 0 0 0 0 0 0 0 0 0 0 0 0 0 0 0
0 0 0 0 0 0 0 0 0 0 0 0 0 0 0 0 0 0 0 0 0 0 0 0 0 0 0 0 0 0 0 0 0 0 0 0 0 0 0 0 0 0 0 0
0 0 0 0 0 0 0 0 0 0 0 0 0 0 0 0 0 0 0 0 0 0 0 0 0 0 0 0 0 0 0 0 0 0 0 0 0 0 0 0 0 0 0 0
0 0 0 0 0 0 0 0 0 0 0 0 0 0 0 0 0 0 0 0 0 0 0 0 0 0 0 0 0 0 0 0 0 0 0 0 0 0 0 0 0 0 0 0
0 0 0 0 0 0 0 0 0 0 0 0 0 0 0 0 0 0 0 0 0 0 0 0 0 0 0 0 0 0 0 0 0 0 0 0 0 0 0 0 0 0 0 0
0 0 0 0 0 0 0 0 0 0 0 0 0 0 0 0 0 0 0 0 0 0 0 0 0 0 0 0 0 0 0 0 0 0 0 0 0 0 0 0 0 0 0 0
0 0 0 0 0 0 0 0 0 0 0 0 0 0 0 0 0 0 0 0 0 0 0 0 0 0 0 0 0 0 0 0 0 0 0 0 0 0 0 0 0 0 0 0
0 0 0 0 0 0 0 0 0 0 0 0 0 0 0 0 0 0 0 0 0 0 0 0 0 0 0 0 0 0 0 0 0 0 0 0 0 0 0 0 0 0 0 0
0 0 0 0 0 0 0 0 0 0 0 0 0 0 0 0 0 0 0 0 0 0 0 0 0 0 0 0 0 0 0 0 0 0 0 0 0 0 0 0 0 0 0 0
0 0 0 0 0 0 0 0 0 0 0 0 0 0 0 0 0 0 0 0 0 0 0 0 0 0 0 0 0 0 0 0 0 0 0 0 0 0 0 0 0 0 0 0
0 0 0 0 0 0 0 0 0 0 0 0 0 0 0 0 0 0 0 0 0 0 0 0 0 0 0 0 0 0 0 0 0 0 0 0 0 0 0 0 0 0 0 0
0 0 0 0 0 0 0 0 0 0 0 0 0 0 0 0 0 0 0 0 0 0 0 0 0 0 0 0 0 0 0 0 0 0 0 0 0 0 0 0 0 0 0 0
0 0 0 0 0 0 0 0 0 0 0 0 0 0 0 0 0 0 0 0 0 0 0 0 0 0 0 0 0 0 0 0 0 0 0 0 0 0 0 0 0 0 0 0
0 0 0 0 0 0 0 0 0 0 0 0 0 0 0 0 0 0 0 0 0 0 0 0 0 0 0 0 0 0 0 0 0 0 0 0 0 0 0 0 0 0 0 0
0 0 0 0 0 0 0 0 0 0 0 0 0 0 0 0 0 0 0 0 0 0 0 0 0 0 0 0 0 0 0 0 0 0 0 0 0 0 0 0 0 0 0 0
0 0 0 0 0 0 0 0 0 0 0 0 0 0 0 0 0 0 0 0 0 0 0 0 0 0 0 0 0 0 0 0 0 0 0 0 0 0 0 0 0 0 0 0
0 0 0 0 0 0 0 0 0 0 0 0 0 0 0 0 0 0 0 0 0 0 0 0 0 0 0 0 0 0 0 0 0 0 0 0 0 0 0 0 0 0 0 0
0 0 0 0 0 0 0 0 0 0 0 0 0 0 0 0 0 0 0 0 0 0 0 0 0 0 0 0 0 0 0 0 0 0 0 0 0 0 0 0 0 0 0 0
0 0 0 0 0 0 0 0 0 0 0 0 0 0 0 0 0 0 0 0 0 0 0 0 0 0 0 0 0 0 0 0 0 0 0 0 0 0 0 0 0 0 0 0
0 0 0 0 0 0 0 0 0 0 0 0 0 0 0 0 0 0 0 0 0 0 0 0 0 0 0 0 0 0 0 0 0 0 0 0 0 0 0 0 0 0 0 0
0 0 0 0 0 0 0 0 0 0 0 0 0 0 0 0 0 0 0 0 0 0 0 0 0 0 0 0 0 0 0 0 0 0 0 0 0 0 0 0 0 0 0 0
0 0 0 0 0 0 0 0 0 0 0 0 0 0 0 0 0 0 0 0 0 0 0 0 0 0 0 0 0 0 0 0 0 0 0 0 0 0 0 0 0 0 0 0
0 0 0 0 0 0 0 0 0 0 0 0 0 0 0 0 0 0 0 0 0 0 0 0 0 0 0 0 0 0 0 0 0 0 0 0 0 0 0 0 0 0 0 0
0 0 0 0 0 0 0 0 0 0 0 0 0 0 0 0 0 0 0 0 0 0 0 0 0 0 0 0 0 0 0 0 0 0 0 0 0 0 0 0 0 0 0 0
Wind_Speed
9 11 16 19 20 12 11 13 14 11 7 10 16 19 18 14 12 14 14 14 14 14 13 11 10 9 9 9 10 10 11 10 9 8 8 8 9 9 9 9 10 11 11 11
9 18 18 15 16 14 14 15 15 8 6 8 13 19 18 17 18 17 17 16 15 15 13 12 11 9 10 10 10 10 10 10 11 9 8 7 7 7 8 8 9 11 12 11
20 10 13 14 16 18 18 18 16 10 4 7 10 18 19 17 16 16 16 17 17 16 15 13 11 10 9 9 9 8 10 10 11 11 8 6 6 5 6 8 9 11 12 12
18 13 12 16 19 19 18 16 13 11 9 8 9 14 16 14 15 15 16 16 16 15 14 13 12 10 9 8 8 8 8 9 9 10 10 11 9 9 9 8 8 9 11 11
14 14 16 19 19 18 12 9 12 13 13 13 12 14 14 9 15 15 14 14 14 13 12 12 10 9 8 7 6 6 7 7 8 9 11 11 11 10 7 7 8 8 8 9
11 8 13 15 12 14 8 6 6 9 10 17 19 17 16 13 16 13 11 11 11 11 10 9 7 6 5 4 3 4 5 6 6 8 9 11 12 11 9 9 7 7 6 6
13 12 8 7 11 13 13 10 7 9 12 15 13 16 16 11 13 14 13 12 10 9 8 7 5 4 4 3 3 3 3 4 5 6 7 9 10 10 10 9 8 7 6 6
15 14 16 12 15 15 19 18 13 11 11 10 10 17 13 6 10 11 11 10 8 7 6 5 4 4 3 2 2 2 2 2 3 4 5 6 7 6 6 7 7 6 6 6
13 11 9 13 11 14 16 18 15 9 5 8 12 12 12 6 9 11 10 9 9 8 6 5 4 3 3 2 2 1 2 2 1 2 3 3 4 5 5 5 6 5 5 5
8 8 7 9 9 14 14 13 9 12 12 16 16 19 13 11 14 12 11 11 10 8 6 5 4 3 2 2 1 1 1 1 1 1 1 1 2 3 4 4 4 4 4 5
9 9 6 8 15 19 16 17 13 10 10 12 16 14 8 13 14 14 13 11 9 7 6 5 4 3 2 1 1 1 1 1 1 1 1 1 1 1 2 2 3 3 4 4
11 8 9 12 9 11 17 20 20 14 12 13 14 13 3 8 9 9 8 7 6 6 5 5 4 3 2 2 1 1 1 1 1 1 1 1 1 1 1 2 2 3 3 3
10 8 8 8 8 9 14 18 20 18 12 13 16 14 3 6 6 7 7 7 6 6 5 5 4 4 4 3 2 2 1 1 1 1 1 1 1 1 1 1 2 2 2 2
9 11 14 17 10 9 14 17 19 19 15 18 22 22 15 11 9 9 8 7 7 7 7 7 7 6 4 3 3 3 2 1 1 0 0 0 1 1 1 1 1 1 2 2
8 11 15 17 14 12 15 17 20 22 22 21 22 25 23 18 15 13 11 10 9 10 10 10 9 7 6 5 4 3 2 1 1 1 0 0 1 1 2 2 2 2 2 2
8 8 10 15 17 16 17 20 22 24 23 25 25 26 22 19 15 14 14 13 14 14 13 12 10 8 8 6 5 4 3 2 1 1 1 0 1 1 2 2 2 2 2 2
7 6 7 13 13 13 20 23 25 24 24 22 26 27 21 19 18 18 17 16 16 15 14 12 10 9 8 7 5 4 3 2 2 2 1 0 0 1 1 2 2 2 3 3
10 9 7 9 9 21 16 15 21 23 24 22 21 20 20 20 17 14 14 15 15 14 12 11 9 8 6 5 4 3 2 3 2 2 1 0 0 0 1 1 2 2 3 3
14 11 8 8 14 16 12 11 15 19 23 21 22 22 20 15 11 14 13 12 13 11 9 7 6 6 5 4 4 4 3 3 2 1 1 1 1 1 1 1 2 2 3 3
13 12 10 10 12 13 12 8 9 11 18 16 17 19 17 12 13 13 7 6 7 5 4 4 4 4 4 4 4 4 3 3 2 1 1 1 2 2 2 2 2 2 2 3
8 11 15 16 15 12 9 3 8 12 11 7 11 15 14 15 13 7 3 4 5 4 3 4 4 4 3 3 4 4 3 2 1 1 1 1 2 2 2 2 2 2 2 2
11 10 12 12 15 14 5 6 10 7 4 3 5 7 9 9 6 3 2 3 4 4 4 4 4 3 2 3 4 4 2 1 1 1 1 1 2 2 1 1 2 2 2 2
10 9 7 9 9 4 3 6 3 2 4 5 4 4 4 4 4 4 3 3 3 3 3 3 4 3 3 2 2 3 1 1 1 1 1 2 2 2 2 1 1 1 1 2
7 5 7 9 10 8 7 5 4 4 5 4 4 3 3 3 3 3 3 3 3 3 2 3 3 3 2 1 1 0 1 1 1 1 1 1 1 2 2 1 1 1 2 2
7 5 7 11 9 8 8 7 6 4 4 4 3 2 3 3 3 3 2 2 2 2 2 2 2 2 2 1 1 1 1 1 1 1 1 1 1 1 2 2 2 2 3 3
9 10 12 13 8 9 9 5 5 5 6 5 3 1 0 1 2 2 2 2 2 2 2 2 2 1 1 1 0 1 0 0 1 1 1 1 1 1 1 2 2 2 4 5
Wind_Direction
187 202 209 207 211 228 223 222 228 232 213 218 235 246 250 248 243 247 248 249 251 253 258 256 253 246 239 236 233 231 230 224 215 209 210 215 220 221 223 225 227 227 226 222
198 222 220 212 211 216 221 229 235 236 217 232 250 254 255 252 247 247 250 250 252 255 255 252 251 246 239 237 234 233 230 224 215 212 207 211 216 222 225 225 228 228 227 225
212 219 206 204 206 212 221 226 229 229 225 239 268 262 248 246 243 244 245 248 251 253 257 257 253 251 246 242 238 233 231 226 219 215 211 210 217 227 225 226 227 228 227 227
224 220 201 207 214 212 227 222 226 226 229 238 231 266 252 245 243 238 240 241 245 249 251 255 256 255 249 247 243 237 236 231 224 214 211 210 211 219 224 225 227 229 227 229
216 208 206 214 216 211 224 208 214 225 236 249 234 254 260 237 245 242 237 237 241 245 248 250 251 253 256 256 251 243 237 233 227 217 214 215 221 228 233 230 233 232 228 228
228 217 216 222 216 211 190 175 213 231 237 245 234 239 260 231 236 237 232 233 237 241 243 245 249 252 259 262 255 248 238 234 228 219 217 219 224 228 231 232 234 234 233 231
221 223 219 205 194 196 195 190 204 213 221 240 225 233 252 240 231 232 235 237 237 239 240 240 245 253 259 262 261 250 234 235 231 222 220 222 227 230 233 235 237 238 238 236
210 219 209 205 207 202 205 206 211 221 228 234 211 233 250 237 231 233 236 237 234 231 229 230 238 247 257 265 262 248 236 241 242 228 226 227 229 232 237 239 241 242 244 245
212 224 198 208 210 206 207 216 226 242 256 253 232 242 256 241 234 228 224 220 222 222 220 225 233 245 255 263 270 262 247 249 262 245 230 229 231 231 237 243 244 245 247 250
219 226 207 200 202 216 221 209 206 216 226 240 244 242 239 212 216 216 218 218 218 218 217 220 228 240 250 263 274 276 264 261 274 268 249 247 246 243 242 241 244 251 257 258
223 225 211 197 206 207 204 210 214 220 227 236 249 247 230 221 213 214 216 218 219 219 222 222 229 237 234 234 257 265 265 272 285 279 260 245 258 259 249 247 255 260 262 264
212 227 233 227 232 238 222 217 214 220 222 231 249 254 182 215 219 216 217 217 219 224 226 224 222 221 227 236 252 261 269 286 306 304 282 277 283 270 256 264 275 276 273 273
197 211 227 230 227 221 227 227 226 232 236 233 240 250 209 215 215 218 225 227 228 229 227 221 218 223 227 229 236 250 260 278 308 312 307 337 350 345 308 303 307 307 299 300
216 220 225 233 234 212 219 225 226 228 235 240 242 251 244 233 232 235 238 238 238 235 228 228 227 229 224 226 236 245 260 280 291 270 261 335 331 328 325 330 335 340 330 320
220 233 234 246 252 240 236 233 230 232 236 243 249 251 253 249 244 243 245 241 238 238 236 232 230 228 222 224 229 238 244 255 249 212 154 338 347 356 4 4 360 0 356 342
226 240 240 245 245 243 246 241 236 235 240 246 253 257 258 261 257 252 248 245 243 240 238 234 230 224 223 224 224 225 231 221 196 192 188 40 20 22 14 4 0 2 357 348
221 227 240 249 246 243 240 234 236 237 237 240 247 254 259 255 250 248 247 244 244 242 239 235 230 227 226 225 217 215 213 198 189 186 181 144 52 25 2 0 2 355 343 338
223 226 235 254 238 237 242 235 233 238 242 240 245 254 255 255 257 255 250 244 241 240 237 234 230 230 224 212 208 201 189 186 183 180 175 199 265 349 353 357 352 341 331 322
222 218 226 235 247 254 257 236 222 230 242 241 245 251 256 258 262 260 250 240 238 234 230 225 219 215 198 189 185 171 169 171 173 190 216 253 263 271 299 316 325 325 317 315
216 216 225 233 244 245 250 235 214 223 248 243 241 248 253 248 252 258 239 218 221 221 209 190 173 170 171 173 163 162 165 167 183 223 267 282 274 259 264 283 297 303 306 310
196 211 224 237 247 254 257 227 160 207 244 246 238 243 246 244 249 261 214 188 196 196 180 167 161 165 171 157 151 160 163 186 229 311 308 300 293 292 288 301 304 305 311 312
209 215 221 229 239 245 223 176 203 241 273 270 255 249 246 247 249 239 203 173 169 169 161 155 154 152 139 136 152 162 179 181 63 11 323 308 312 313 319 324 316 319 317 312
225 225 227 225 240 273 202 218 252 290 261 269 274 273 246 244 243 221 197 173 163 158 152 144 144 134 116 113 150 172 174 67 81 56 329 317 324 331 333 322 314 312 311 303
243 252 247 251 252 258 256 262 279 282 270 276 274 262 238 230 218 206 191 164 155 146 140 132 135 137 135 123 112 119 67 82 132 150 276 303 317 326 339 323 307 299 297 300
247 238 248 257 266 274 257 248 256 266 265 258 261 261 234 203 197 194 179 161 155 144 130 133 150 155 148 121 91 40 47 145 174 198 219 271 292 306 316 315 309 301 293 293
234 236 244 254 255 250 260 259 241 235 243 247 240 240 325 176 185 163 155 145 140 136 123 130 139 147 145 125 130 19 343 195 185 195 233 265 275 290 297 307 316 321 306 315